Pampa, TX

4:21 AM CDT on May 26, 2017 (GMT -0500)
Perry Lefors

Weather History for KPPA - June, 2013

Change the Weather History Date:

Wednesday, June 12, 2013

  Actual Average Record
Temperature  
Mean Temperature 82 °F -  
Max Temperature 97 °F 85 °F 100 °F (2011)
Min Temperature 67 °F 58 °F 45 °F (1975)
Cooling Degree Days 17    
Growing Degree Days 32 (Base 50)    
Moisture  
Dew Point 53 °F    
Average Humidity 39    
Maximum Humidity 63    
Minimum Humidity 18    
Precipitation  
Precipitation 0.00 in - - ()
Sea Level Pressure  
Sea Level Pressure 30.02 in    
Wind  
Wind Speed 13 mph (SSW)    
Max Wind Speed 22 mph    
Max Gust Speed 29 mph    
Visibility 10 miles    
Events      
Averages and records for this station are not official NWS values.
T = Trace of Precipitation, MM = Missing Value Source: NWS Daily Summary

Daily Weather History Graph

Daily Weather History Graph

Search for Another Location

Airport or City:

Trip Planner

Search our weather history database for the weather conditions in past years. The results will help you decide how hot, cold, wet, or windy it might be!

Date:

Astronomy

Jun. 12, 2013 Rise Set
Actual Time 6:27 AM CDT 9:00 PM CDT
Civil Twilight 5:57 AM CDT 9:30 PM CDT
Nautical Twilight 5:20 AM CDT 10:07 PM CDT
Astronomical Twilight 4:39 AM CDT 10:48 PM CDT
Moon 10:03 AM CDT (6/12) 11:44 PM CDT (6/12)
Length of Visible Light 15h 32m
Length of Day
14h 32m
Waxing Crescent, 14% of the Moon is Illuminated
Jun 12
Waxing Crescent
Jun 16
First Quarter
Jun 23
Full
Jun 29
Last Quarter
Jul 8
New

Hourly Weather History & Observations

Time (CDT) Temp. Heat Index Dew Point Humidity Pressure Visibility Wind Dir Wind Speed Gust Speed Precip Events Conditions
12:15 AM 77.9 °F - 50.0 °F 38% 29.95 in 10.0 mi South 19.6 mph 25.3 mph N/A   Clear
12:35 AM 77.0 °F - 50.9 °F 40% 29.96 in 10.0 mi SSW 16.1 mph - N/A   Clear
12:55 AM 75.7 °F - 51.4 °F 43% 29.96 in 10.0 mi SSW 15.0 mph - N/A   Clear
1:15 AM 74.5 °F - 52.0 °F 45% 29.96 in 10.0 mi SSW 13.8 mph - N/A   Clear
1:35 AM 73.0 °F - 52.3 °F 48% 29.96 in 10.0 mi SSW 11.5 mph - N/A   Clear
1:55 AM 72.1 °F - 52.7 °F 50% 29.96 in 10.0 mi SSW 11.5 mph - N/A   Clear
2:15 AM 72.1 °F - 52.7 °F 50% 29.96 in 10.0 mi SSW 11.5 mph - N/A   Clear
2:35 AM 72.9 °F - 52.7 °F 49% 29.96 in 10.0 mi SSW 11.5 mph - N/A   Clear
2:55 AM 71.8 °F - 52.5 °F 51% 29.97 in 10.0 mi SW 8.1 mph - N/A   Clear
3:15 AM 68.4 °F - 52.7 °F 57% 29.98 in 10.0 mi WSW 9.2 mph - N/A   Clear
3:35 AM 68.5 °F - 52.2 °F 56% 29.98 in 10.0 mi SSW 10.4 mph - N/A   Clear
3:55 AM 68.4 °F - 52.2 °F 56% 29.99 in 10.0 mi SW 10.4 mph - N/A   Clear
4:15 AM 68.9 °F - 52.2 °F 55% 29.98 in 10.0 mi SSW 11.5 mph - N/A   Clear
4:35 AM 67.5 °F - 52.7 °F 59% 29.97 in 10.0 mi SSW 11.5 mph - N/A   Clear
4:55 AM 68.9 °F - 53.8 °F 58% 29.99 in 10.0 mi SW 10.4 mph - N/A   Clear
5:15 AM 71.8 °F - 54.1 °F 54% 29.99 in 10.0 mi WSW 13.8 mph - N/A   Clear
5:35 AM 71.8 °F - 54.5 °F 54% 29.99 in 10.0 mi SW 13.8 mph - N/A   Clear
5:55 AM 70.7 °F - 54.5 °F 56% 30.00 in 10.0 mi SW 11.5 mph - N/A   Clear
6:15 AM 70.5 °F - 54.5 °F 57% 30.00 in 10.0 mi WSW 12.7 mph - N/A   Clear
6:35 AM 69.8 °F - 54.7 °F 59% 30.02 in 10.0 mi WSW 10.4 mph - N/A   Clear
6:55 AM 68.2 °F - 55.0 °F 63% 30.02 in 10.0 mi SW 11.5 mph - N/A   Clear
7:15 AM 69.3 °F - 55.4 °F 61% 30.02 in 10.0 mi SW 11.5 mph - N/A   Clear
7:35 AM 70.5 °F - 55.4 °F 59% 30.04 in 10.0 mi WSW 11.5 mph - N/A   Clear
7:55 AM 72.1 °F - 55.4 °F 56% 30.05 in 10.0 mi SW 12.7 mph - N/A   Clear
8:15 AM 72.3 °F - 55.4 °F 55% 30.05 in 10.0 mi SW 13.8 mph - N/A   Clear
8:35 AM 73.4 °F - 55.6 °F 54% 30.05 in 10.0 mi SW 18.4 mph - N/A   Clear
8:55 AM 75.7 °F - 55.6 °F 49% 30.05 in 10.0 mi WSW 19.6 mph 24.2 mph N/A   Clear
9:15 AM 78.1 °F - 56.7 °F 48% 30.06 in 10.0 mi WSW 21.9 mph 27.6 mph N/A   Clear
9:35 AM 79.3 °F - 57.4 °F 47% 30.06 in 10.0 mi WSW 21.9 mph 28.8 mph N/A   Clear
9:55 AM 80.1 °F 80.4 °F 57.2 °F 45% 30.05 in 10.0 mi WSW 21.9 mph 26.5 mph N/A   Clear
10:15 AM 81.1 °F 81.0 °F 56.3 °F 42% 30.05 in 10.0 mi WSW 21.9 mph 27.6 mph N/A   Clear
10:35 AM 82.4 °F 81.8 °F 56.1 °F 40% 30.05 in 10.0 mi WSW 19.6 mph 25.3 mph N/A   Clear
10:55 AM 84.2 °F 83.3 °F 56.5 °F 39% 30.05 in 10.0 mi WSW 18.4 mph 21.9 mph N/A   Clear
11:15 AM 85.6 °F 84.3 °F 55.8 °F 36% 30.06 in 10.0 mi WSW 13.8 mph 20.7 mph N/A   Clear
11:35 AM 87.6 °F 85.7 °F 54.5 °F 32% 30.06 in 10.0 mi WSW 12.7 mph 19.6 mph N/A   Clear
11:55 AM 88.9 °F 86.7 °F 53.6 °F 30% 30.06 in 10.0 mi WSW 11.5 mph 18.4 mph N/A   Clear
12:15 PM 90.0 °F - 52.7 °F 28% 30.06 in 10.0 mi WSW 10.4 mph 19.6 mph N/A   Clear
12:35 PM 91.2 °F 88.9 °F 53.4 °F 28% 30.05 in 10.0 mi West 10.4 mph - N/A   Clear
12:55 PM 91.6 °F - 52.3 °F 26% 30.05 in 10.0 mi SSW 8.1 mph - N/A   Clear
1:15 PM 91.8 °F - 50.9 °F 25% 30.05 in 10.0 mi Calm Calm - N/A   Clear
1:35 PM 93.0 °F - 50.7 °F 24% 30.05 in 10.0 mi SSE 6.9 mph - N/A   Clear
1:55 PM 94.3 °F - 49.1 °F 21% 30.04 in 10.0 mi East 5.8 mph - N/A   Clear
2:15 PM 94.1 °F - 49.8 °F 22% 30.04 in 10.0 mi SSE 8.1 mph - N/A   Clear
2:35 PM 95.0 °F - 50.4 °F 22% 30.03 in 10.0 mi Calm Calm - N/A   Clear
2:55 PM 96.1 °F - 49.8 °F 21% 30.03 in 10.0 mi South 9.2 mph - N/A   Clear
3:15 PM 96.1 °F - 50.5 °F 21% 30.03 in 10.0 mi SW 8.1 mph - N/A   Clear
3:35 PM 96.4 °F - 48.0 °F 19% 30.02 in 10.0 mi SE 10.4 mph - N/A   Clear
3:55 PM 96.3 °F - 48.7 °F 20% 30.02 in 10.0 mi South 4.6 mph - N/A   Clear
4:15 PM 97.3 °F - 46.9 °F 18% 30.02 in 10.0 mi South 6.9 mph - N/A   Clear
4:35 PM 97.3 °F - 48.7 °F 19% 30.02 in 10.0 mi South 6.9 mph 16.1 mph N/A   Clear
4:55 PM 96.3 °F - 49.3 °F 20% 30.02 in 10.0 mi South 8.1 mph - N/A   Clear
5:15 PM 96.8 °F - 50.4 °F 21% 30.01 in 10.0 mi SSE 10.4 mph 16.1 mph N/A   Clear
5:35 PM 97.0 °F - 50.4 °F 21% 30.01 in 10.0 mi South 8.1 mph - N/A   Clear
5:55 PM 96.1 °F - 50.0 °F 21% 30.00 in 10.0 mi South 8.1 mph - N/A   Clear
6:15 PM 95.9 °F - 50.5 °F 21% 30.00 in 10.0 mi South 9.2 mph - N/A   Clear
6:35 PM 95.0 °F - 50.9 °F 22% 30.00 in 10.0 mi SSE 10.4 mph - N/A   Clear
6:55 PM 94.5 °F - 51.6 °F 23% 30.00 in 10.0 mi SSE 10.4 mph - N/A   Clear
7:15 PM 93.7 °F - 50.9 °F 23% 30.00 in 10.0 mi SSE 11.5 mph - N/A   Clear
7:35 PM 93.0 °F - 50.2 °F 23% 30.01 in 10.0 mi SSE 11.5 mph - N/A   Clear
7:55 PM 92.3 °F - 49.6 °F 23% 30.01 in 10.0 mi SSE 10.4 mph - N/A   Clear
8:15 PM 90.7 °F - 50.0 °F 25% 30.02 in 10.0 mi SSE 12.7 mph - N/A   Clear
8:35 PM 88.5 °F - 50.9 °F 27% 30.02 in 10.0 mi SSE 11.5 mph - N/A   Clear
8:55 PM 86.0 °F - 50.9 °F 30% 30.02 in 10.0 mi SSE 10.4 mph 17.3 mph N/A   Clear
9:15 PM 83.8 °F - 51.1 °F 32% 30.02 in 10.0 mi SSE 10.4 mph - N/A   Clear
9:35 PM 83.5 °F - 52.0 °F 34% 30.03 in 10.0 mi South 11.5 mph 18.4 mph N/A   Clear
9:55 PM 82.6 °F 81.7 °F 54.5 °F 38% 30.03 in 10.0 mi South 12.7 mph - N/A   Clear
10:15 PM 81.5 °F 81.1 °F 55.9 °F 41% 30.05 in 10.0 mi South 13.8 mph - N/A   Clear
10:35 PM 80.6 °F 80.7 °F 56.7 °F 44% 30.05 in 10.0 mi South 11.5 mph - N/A   Clear
10:55 PM 79.2 °F - 57.2 °F 47% 30.06 in 10.0 mi South 12.7 mph - N/A   Clear
11:15 PM 79.2 °F - 57.2 °F 47% 30.07 in 10.0 mi South 12.7 mph - N/A   Clear
11:35 PM 78.8 °F - 57.4 °F 48% 30.07 in 10.0 mi South 12.7 mph - N/A   Clear
11:55 PM 77.9 °F - 57.4 °F 49% 30.07 in 10.0 mi South 12.7 mph - N/A   Clear